Location: Monrovia
(34.7865°N, 86.7139°W)
Time: 21:41:31
(UTC+00:00)

Cosmos 2082 Rocket - Pass Details

Date: 14 July 2020
Orbit: 833 x 853 km, 71.0° (Epoch: 08 August)

Event Time Altitude Azimuth Distance (km) Brightness Sun altitude
Exits shadow 07:28:15 48° 104° (ESE) 1,102 2.7 -29.2°
Drops below altitude 10° 07:33:39 10° 33° (NNE) 2,484 5.6 -28.8°
Sets 07:36:11 0° 28° (NNE) 3,422 6.6 -28.5°
